FENGYUN 1C DEB

Satellite information

Favourite Embed

Satellite Type and Status

DEBRISIN ORBIT

Key statistics

Satellite FENGYUN 1C DEB at a glance.

Uptime

9555

Days in orbit

Revolutions

≈ 14.1

Per day

Orbit

SSO

Sun Synchronous Orbit

Inclination

99.2

Latest

Satellite identification and parameters

Extended collection of information and parameters for FENGYUN 1C DEB.

Object identification

Identified? True

Debris? True

Object name: FENGYUN 1C DEB

International designator: 1999-025CMV

Object number (NORAD): 31944

Object ID (CCSDS): 31944

Country: PEOPLES REPUBLIC OF CHINA (PRC)

Current information (Y/N): Y

RCS size: SMALL

Orbital parameters

Period: 102.037 minutes

Inclination: 99.1879 deg

SMA: 7233.245 km

Apoapsis: 966.792 km

Periapsis: 743.428 km

RAAN: 330.1906 deg

Eccentricy: 0.0154401

Argument of periapsis: 92.5267 deg

Mean anomaly: 335.9916 deg

Mean motion: 14.11246878 rev/day

Mean motion (dot): 0.00000801 rev/day2

B* drag term: 0.00041912 1/REarth

Two-line elements (TLE)

Creation date: July 6, 2025, 4:10 a.m.

Reference frame: TEME

Reference center: EARTH

Epoch: July 5, 2025, 3:57 p.m. UTC

TLE line 0: 0 FENGYUN 1C DEB

TLE line 1: 1 31944U 99025CMV 25186.66499141 .00000801 00000-0 41912-3 0 9997

TLE line 2: 2 31944 99.1879 330.1906 0154401 92.5267 335.9916 14.11246878606521

Live tracking on map

Real-time ground track for satellite FENGYUN 1C DEB.

In-orbit conjunctions

A list of the most updated potential collisions computed for object FENGYUN 1C DEB.

Target Orbit TCA Probability of collision Miss distance Type
WEOS SSO 2025-04-15 04:26:23 0.0003877345 273.0 (m) PAYLOAD
H-1 R/B SSO 2025-04-08 19:44:53 0.0001727498 485.0 (m) ROCKET BODY
COSMOS 1850 LEO 2025-01-01 19:59:40 0.0002318434 240.0 (m) PAYLOAD
COSMOS 2135 LEO 2024-11-28 18:15:39 0.0002225281 388.0 (m) PAYLOAD

Associated space launch

Chinese polar orbiting meteorological satellite

FENGYUN 1C DEB was lifted into orbit during the mission ‘Long March 4B | Feng Yun 1C’, on board a Long March 4B space rocket.

The launch took place on May 10, 1999, 1:33 a.m. from Launch Complex 7.

For more information about the launch, click the button.

Launch to space Long March 4B | Feng Yun 1C
Long March 4B | Feng Yun 1C

Agency: N/A

Status: Launch Successful

Launch date: May 10, 1999, 1:33 a.m. UTC

Rocket: Long March 4B

Launch pad: Launch Complex 7

Location: Taiyuan Satellite Launch Center, People's Republic of China

...

Latest news about this satellite

There are no fresh news available about this satellite. Check back as we update our databases every day.


Newsletter sign-up

Weekly statistics, charts and insights to help you stay on top of the space industry.